Theta_e
328 328 327 330 326 321 323 321 316 319 326 322 314 314 315 312 314 316 313 311 316 321 327 331 333 333 333 334 331 341 353 353 350 353 356 355 353 352 354 355 356 357 356 354 353 353 355 358 359 360 362 361 361 361 361 360 360 360 360 360 360 358 357
327 328 328 329 328 326 322 316 318 325 326 323 318 315 316 315 314 315 312 312 314 312 317 327 331 331 332 333 329 336 349 350 348 353 354 354 352 351 353 356 357 357 356 354 353 353 355 358 359 360 361 362 362 361 362 361 361 361 360 360 361 359 358
327 327 327 326 328 330 325 321 325 325 317 314 316 314 315 317 315 314 312 312 313 311 315 323 327 328 328 332 330 330 343 350 349 350 353 352 353 352 353 355 355 357 356 354 354 353 355 358 358 360 361 362 362 362 361 362 360 361 360 360 360 360 360
327 327 326 319 321 329 329 326 327 325 318 316 316 314 314 316 317 316 314 312 314 319 325 324 325 329 329 331 334 329 337 349 349 347 351 351 352 353 354 354 354 356 355 354 354 355 357 358 358 360 361 362 363 363 363 362 361 361 361 361 361 360 360
323 321 323 321 321 324 323 321 319 319 319 319 319 316 313 315 317 318 318 316 317 329 334 329 327 330 329 331 341 336 335 345 349 349 352 352 352 353 353 354 354 354 354 355 355 356 358 359 359 360 362 362 362 363 363 363 363 362 362 361 361 361 360
317 319 326 328 327 327 325 322 318 318 317 315 315 315 314 313 314 316 318 317 324 338 338 332 330 331 332 331 339 341 337 343 348 348 350 352 352 351 353 352 352 354 355 355 355 356 357 361 361 360 361 362 362 363 364 364 364 363 362 362 361 361 361
322 326 328 329 328 328 329 326 325 325 320 314 311 314 316 312 311 314 314 314 330 351 345 337 333 332 332 331 334 342 341 345 350 349 348 351 353 352 352 350 351 353 353 355 356 357 358 361 363 361 362 362 362 363 364 364 365 364 363 363 361 362 361
326 329 329 329 329 330 326 326 327 325 322 320 318 321 322 315 311 314 312 312 328 353 352 340 336 335 332 333 334 338 340 345 351 349 348 352 353 353 352 350 351 352 351 354 356 358 361 363 363 363 363 363 362 363 364 365 366 365 364 363 362 362 362
322 324 327 325 324 327 325 326 327 326 327 325 322 325 325 317 313 314 315 314 325 351 359 344 340 338 333 332 334 336 340 346 350 349 348 351 353 353 352 351 352 351 353 356 358 360 361 363 365 364 363 364 363 363 364 365 366 366 366 365 364 363 363
324 323 325 322 321 322 326 327 326 327 327 323 321 320 318 318 320 316 315 317 325 344 353 344 340 339 335 337 334 336 336 339 347 353 349 350 353 353 352 351 352 355 358 363 365 365 363 363 365 365 364 364 364 363 364 365 368 368 367 367 366 364 363
330 328 331 334 329 320 319 323 325 326 326 325 324 318 315 325 326 318 323 331 328 331 340 343 340 336 342 342 335 343 348 346 352 355 351 351 353 352 352 351 354 361 365 368 371 369 365 363 365 366 365 365 364 363 363 364 368 369 368 368 368 365 365
330 330 332 335 331 322 319 321 322 325 325 324 323 316 321 336 327 317 333 344 328 329 342 348 345 340 347 345 339 353 362 363 365 358 352 353 351 352 353 352 357 364 365 368 373 371 367 364 365 367 366 365 364 364 364 364 368 369 369 369 368 367 366
326 329 330 331 332 330 326 325 323 324 325 321 319 319 327 338 327 325 346 349 334 337 344 344 348 348 345 344 348 355 357 361 363 357 353 352 350 354 355 350 357 364 363 368 372 372 368 365 365 368 367 366 366 365 365 365 367 369 370 369 369 368 367
325 327 330 331 330 330 330 330 328 327 326 323 321 323 330 336 332 339 357 352 340 340 340 339 345 347 343 344 348 351 352 355 357 354 352 350 354 362 358 352 356 361 362 367 371 372 371 366 365 368 368 367 367 366 366 366 366 368 369 370 369 368 368
325 327 330 330 330 329 327 328 333 331 329 326 323 322 327 333 331 334 347 346 340 337 340 345 347 347 344 344 344 345 348 351 348 349 352 354 362 369 367 364 369 372 373 374 374 375 373 367 365 367 367 368 367 367 368 367 367 368 368 370 370 368 368
326 325 328 330 329 329 326 325 330 331 328 327 324 323 324 331 331 329 333 335 338 341 344 347 348 347 345 345 348 348 349 350 348 349 354 360 365 368 373 379 384 385 385 383 380 376 370 365 365 365 367 369 368 368 369 368 368 368 367 369 370 368 368
326 324 326 330 329 327 328 329 329 331 332 331 328 325 327 332 333 330 332 340 349 348 343 341 345 346 345 346 346 349 353 355 351 347 351 357 360 364 373 379 382 382 384 385 382 377 370 366 366 366 367 368 368 368 368 368 369 368 368 369 369 369 369
324 321 324 334 333 328 331 335 332 332 333 331 330 327 327 331 333 335 344 354 356 349 342 344 346 345 345 346 345 349 355 354 347 344 348 353 359 367 372 372 374 375 379 384 380 372 369 369 367 367 366 367 369 369 367 369 369 368 368 369 369 370 368
323 323 329 335 332 329 334 335 333 334 332 331 334 334 333 330 329 334 343 347 349 348 346 347 348 345 344 348 347 345 349 353 353 352 351 348 353 366 371 374 380 382 381 384 378 369 368 369 368 367 366 366 366 368 367 368 368 368 368 367 369 370 369
325 333 340 337 329 328 334 332 331 335 335 334 337 334 335 338 337 336 341 342 343 346 342 343 346 343 341 344 344 340 347 357 360 361 363 360 357 367 376 383 388 384 376 375 372 365 363 365 366 365 364 364 365 366 365 366 367 367 368 367 368 370 370
324 329 334 332 325 327 332 332 332 334 334 335 336 334 337 343 345 343 342 342 339 339 339 341 343 339 337 341 345 348 355 361 361 361 365 366 364 366 369 372 375 373 367 365 363 360 357 359 361 362 363 362 364 364 365 366 367 367 367 366 367 369 371
321 322 326 327 323 325 331 333 333 331 330 332 337 340 341 343 345 346 344 341 342 339 338 340 340 341 344 349 354 359 363 363 361 361 363 361 361 362 362 363 365 365 363 362 360 360 358 357 357 358 361 362 363 365 366 365 366 367 367 366 365 367 371
317 321 326 327 325 328 334 334 331 330 332 333 339 345 343 341 342 346 346 344 347 348 346 345 343 347 354 359 359 359 362 363 363 363 363 360 359 358 360 363 362 361 362 363 362 362 361 360 360 359 359 361 363 365 365 365 366 366 367 366 364 365 368
319 323 325 324 325 329 332 332 332 333 332 332 343 347 345 340 341 345 346 345 345 347 348 349 349 352 358 361 356 353 356 361 361 362 362 361 359 357 359 363 362 360 362 366 367 368 367 365 366 366 364 364 364 366 366 365 365 365 366 366 365 364 365
319 323 324 323 326 329 330 330 332 335 335 340 349 349 347 340 340 345 345 344 344 343 344 347 349 351 352 351 350 349 353 358 360 360 359 358 358 356 356 360 361 359 361 363 366 368 368 368 369 369 368 367 366 367 368 367 365 364 363 365 365 365 364
316 321 322 322 326 329 328 328 328 333 342 348 348 349 344 336 340 344 342 342 343 342 342 344 346 346 344 343 346 347 350 354 358 360 358 357 357 356 354 355 358 358 360 364 365 366 367 367 367 368 368 367 368 369 370 369 367 364 362 363 364 365 365
317 319 321 326 332 330 325 327 330 334 341 342 342 342 339 335 338 340 339 341 341 342 344 345 345 345 345 343 345 345 347 351 355 358 359 359 357 357 355 355 356 357 359 362 364 366 366 365 365 367 369 369 368 369 370 370 368 365 364 362 363 365 365
317 320 322 330 336 331 323 325 330 331 334 336 336 336 335 334 334 335 337 336 337 339 344 345 345 346 346 344 346 348 349 350 352 356 358 358 357 356 356 357 358 358 359 361 362 363 366 365 363 367 370 369 367 369 370 368 368 367 366 364 365 366 365
319 321 323 326 329 326 321 323 326 325 327 330 330 331 331 331 331 333 334 334 333 336 341 343 345 345 345 346 347 348 349 351 352 355 356 356 356 356 356 359 360 360 360 362 362 363 363 363 364 367 370 370 369 369 369 368 369 369 367 367 367 366 366
320 321 322 325 326 324 321 321 323 322 322 325 327 329 329 329 329 330 330 331 331 334 336 340 342 344 345 346 346 347 348 350 351 354 357 358 356 356 358 360 360 359 360 362 363 364 362 361 363 366 367 367 370 371 370 369 368 366 368 370 370 367 367
321 320 322 326 327 324 322 323 323 321 321 324 326 327 328 329 328 327 328 329 330 331 334 337 339 341 344 346 346 346 348 349 350 353 358 359 358 357 359 360 360 359 361 361 362 362 361 360 361 363 363 364 366 368 368 369 367 365 367 370 371 369 369
320 320 320 321 322 321 322 324 324 322 325 327 326 325 327 328 326 326 326 328 328 329 332 334 336 339 342 344 346 347 348 350 351 354 357 359 359 357 358 358 359 359 360 360 360 360 360 360 360 362 364 364 365 366 367 368 369 369 370 371 372 372 370
318 317 319 321 322 321 321 323 323 322 325 326 325 325 326 325 326 325 325 326 328 329 329 330 334 338 341 342 345 347 348 349 353 357 357 356 355 357 358 357 357 358 358 358 359 358 357 358 358 360 362 363 365 368 368 367 370 371 372 372 372 371 370
317 318 321 323 324 324 323 323 321 322 324 324 325 327 325 324 326 326 325 326 328 329 328 327 330 337 341 342 343 347 349 351 354 358 357 352 352 355 357 356 356 357 356 356 356 356 355 355 355 357 358 360 363 367 369 371 371 370 370 372 372 371 371
317 318 319 320 322 323 322 322 322 324 325 325 326 326 325 325 325 325 327 330 331 330 329 328 330 334 339 340 341 346 350 349 349 350 351 351 353 355 356 356 357 356 354 355 355 355 355 354 354 355 356 358 359 363 368 372 371 369 369 370 371 373 372
317 317 317 318 319 320 319 319 321 323 323 324 325 324 324 325 326 326 328 330 330 329 330 331 331 333 336 339 341 346 348 347 344 345 348 350 351 353 355 356 355 354 354 354 354 354 354 354 354 355 356 356 356 359 363 368 370 369 369 366 365 366 369
315 316 316 316 317 318 318 318 319 320 322 324 324 323 323 324 326 326 326 326 328 328 330 332 333 334 337 340 341 343 344 344 343 345 348 348 350 352 354 354 354 354 353 353 354 354 354 353 353 353 354 354 354 356 359 361 362 362 362 361 359 358 360
Wind_Speed
15 15 14 13 10 6 6 9 9 7 6 5 3 3 3 3 2 4 4 5 4 3 6 7 8 10 13 16 13 9 22 26 22 19 19 19 18 18 17 17 17 18 17 18 23 28 28 29 32 34 37 39 40 39 40 41 41 41 43 43 42 43 43
19 15 14 15 13 8 6 9 9 5 4 6 4 2 3 4 4 4 6 8 7 6 6 6 9 11 13 18 16 10 19 25 23 21 20 20 20 18 18 18 17 17 18 18 23 29 31 34 37 37 38 38 38 38 39 40 40 41 43 43 42 42 42
18 15 14 13 15 14 9 8 9 7 5 6 5 3 4 6 5 4 8 11 8 7 7 9 13 15 13 15 17 13 15 20 20 19 20 21 20 17 16 16 15 16 17 19 22 28 33 37 38 36 35 35 35 36 38 40 41 42 42 42 41 40 40
16 12 10 10 12 15 11 7 9 8 6 4 5 4 2 4 4 4 6 8 7 6 9 14 18 19 15 12 14 15 16 21 19 16 18 18 17 16 15 16 16 16 18 20 26 31 33 35 36 34 35 36 36 37 37 39 40 40 40 39 39 38 39
13 11 10 12 13 13 11 8 8 9 6 4 4 4 3 3 2 3 4 4 5 5 7 15 18 17 16 12 11 12 14 21 21 18 19 19 16 16 16 15 16 17 17 20 26 32 32 33 34 34 35 36 36 36 37 38 39 39 40 40 40 40 41
8 11 13 14 14 13 11 7 6 9 8 6 5 5 6 5 3 3 4 3 6 5 4 10 15 15 15 14 11 9 11 18 21 20 21 21 18 16 16 16 15 16 16 17 22 27 28 30 33 35 35 35 36 37 38 39 40 41 42 42 42 42 42
8 11 15 17 16 15 13 9 6 8 9 7 7 6 6 6 5 5 3 3 5 6 5 7 16 15 13 13 12 8 8 15 20 19 19 20 17 17 17 16 15 14 14 15 18 23 26 30 34 36 35 36 37 39 39 39 40 42 43 43 43 42 40
9 10 10 16 18 15 12 11 9 8 9 9 7 4 6 6 5 5 3 4 5 7 8 2 10 11 11 11 11 9 7 13 20 21 18 18 17 17 16 15 14 14 14 14 15 18 21 25 30 33 35 35 37 37 37 38 40 41 42 42 42 41 41
6 6 4 8 15 14 9 10 13 11 10 12 9 4 5 5 7 8 4 3 6 6 7 6 8 9 12 12 10 8 7 12 18 19 18 19 19 18 17 15 14 14 14 14 15 15 17 22 27 31 33 33 34 35 36 36 37 39 40 40 40 41 41
3 3 2 3 8 11 8 9 15 16 14 12 10 6 4 4 8 9 5 4 6 5 4 7 9 9 9 9 10 8 7 12 15 15 17 18 18 18 18 17 15 15 14 15 16 15 17 22 26 29 31 31 32 33 34 34 34 36 38 38 39 40 40
5 5 6 8 7 11 12 11 14 17 17 14 7 7 5 4 6 7 6 6 5 3 1 4 5 7 6 7 8 5 4 9 13 14 15 14 15 17 19 17 16 15 15 15 16 16 18 22 25 26 30 31 31 31 33 34 34 34 36 37 38 39 39
10 12 13 15 12 8 15 17 15 15 19 19 11 7 8 6 7 5 7 9 8 5 4 3 4 6 6 7 8 7 5 7 10 14 16 16 15 16 18 18 17 18 17 15 15 15 17 22 24 25 28 31 31 31 33 34 34 34 35 37 37 38 39
14 13 13 13 13 8 6 13 16 15 18 22 18 9 9 9 7 5 7 11 10 7 6 6 7 7 7 8 9 8 8 8 9 13 19 18 14 12 14 17 17 18 17 15 15 16 17 21 24 25 27 30 31 31 32 35 35 34 35 37 38 38 38
15 12 10 10 11 10 5 4 11 14 14 21 22 12 8 11 9 7 9 12 9 7 7 7 6 6 7 9 10 8 8 10 11 12 15 15 12 10 12 15 14 15 16 16 16 16 17 19 22 24 26 29 31 31 32 34 35 35 36 37 37 37 38
10 10 9 9 10 10 8 2 3 6 4 10 20 18 10 8 10 9 9 9 6 5 7 6 5 8 9 10 11 10 8 9 11 11 11 11 10 10 11 12 10 11 12 12 13 14 15 19 23 24 25 28 30 31 31 34 36 36 35 36 37 38 38
7 10 11 11 11 11 7 3 3 3 4 2 13 18 12 6 10 11 7 7 5 4 7 8 7 9 11 10 9 9 8 8 9 10 10 11 11 11 10 10 10 10 10 11 12 13 14 18 23 24 24 26 28 29 31 33 35 36 34 34 37 38 38
7 12 15 11 8 9 5 2 3 3 3 5 6 15 15 8 8 9 7 5 6 6 10 10 8 9 11 10 9 9 9 9 9 8 7 9 11 11 10 10 10 10 9 9 10 11 13 17 21 23 24 25 27 30 31 31 33 34 33 32 34 37 37
8 14 15 9 4 3 4 3 2 2 3 5 3 7 14 11 6 6 6 5 5 7 10 10 9 9 9 9 9 9 9 8 8 9 9 8 9 10 10 9 8 9 8 8 9 12 15 18 20 21 23 24 27 30 31 31 32 34 33 31 31 34 36
6 10 8 4 2 4 5 5 3 4 4 4 6 5 0 4 5 5 9 10 7 8 10 9 9 10 11 10 10 10 10 9 8 9 8 8 8 7 8 8 6 6 7 6 6 9 13 16 17 17 19 21 24 27 29 30 32 33 34 32 29 31 34
4 5 3 0 2 6 7 6 6 6 5 3 5 7 11 14 10 1 9 12 9 10 11 10 8 10 13 11 9 11 13 13 12 11 10 10 10 7 7 8 7 7 9 10 8 7 8 12 16 17 19 20 20 22 26 28 30 31 32 31 29 29 32
3 5 4 2 3 6 6 5 4 3 2 5 5 4 11 22 20 10 2 11 13 12 12 11 9 11 13 10 8 12 15 14 14 14 14 14 15 13 11 10 10 11 14 14 12 10 7 5 8 11 16 20 21 21 22 24 26 28 29 30 29 28 30
4 5 5 4 2 1 4 6 7 6 4 6 6 6 11 18 22 18 10 8 11 11 11 11 10 11 12 9 7 10 14 14 13 14 14 14 13 12 11 11 13 15 15 14 12 10 7 4 1 1 5 13 20 22 22 22 23 24 25 28 29 28 29
5 4 3 4 2 1 7 12 12 10 7 5 6 8 10 14 19 19 17 15 14 12 11 10 9 10 10 7 5 7 11 13 12 12 13 12 11 11 11 11 11 12 11 10 9 8 6 4 5 5 4 4 11 18 22 23 22 22 24 27 29 29 28
5 4 3 4 2 4 12 15 15 13 8 5 8 7 6 13 16 15 17 19 18 15 13 12 11 9 7 5 4 7 9 12 12 11 11 11 10 10 12 14 14 14 12 9 8 7 6 5 6 6 7 6 6 12 18 20 21 23 27 28 28 28 27
5 4 4 4 1 6 12 14 16 16 9 5 9 4 3 10 11 12 15 16 16 14 13 11 9 7 7 6 7 9 11 12 13 12 12 12 13 14 15 16 18 17 15 13 11 11 10 9 7 7 8 9 8 8 11 16 22 27 29 27 26 27 26
4 4 4 3 1 6 13 11 14 15 8 5 4 1 5 7 9 12 13 13 13 13 12 10 8 8 9 10 11 12 13 12 12 11 10 10 12 14 16 17 17 15 14 13 11 11 11 11 9 9 9 11 11 10 9 15 22 26 24 23 24 26 26
3 4 4 2 1 7 15 12 11 12 7 4 1 3 3 8 12 12 12 13 12 11 10 10 10 10 11 12 12 12 12 11 10 9 9 9 9 10 11 13 14 13 12 11 10 9 9 10 10 10 11 11 11 11 12 15 18 20 22 22 24 26 27
2 3 1 1 3 5 11 11 7 7 6 5 1 3 6 9 10 10 9 11 13 12 10 9 9 10 11 12 12 12 11 10 9 8 8 8 7 8 10 11 13 13 11 11 10 8 6 7 9 11 12 12 11 12 14 13 13 17 21 21 23 26 28
3 3 2 1 3 4 9 9 6 7 8 8 6 7 7 7 8 8 8 10 12 13 11 9 8 9 10 11 11 11 10 9 9 8 8 9 9 10 11 12 13 13 13 14 12 7 5 8 10 11 9 7 10 12 11 9 11 15 16 18 22 25 26
6 5 3 1 1 4 8 7 6 9 10 9 9 8 7 7 8 8 8 10 12 12 12 11 9 9 10 10 10 10 9 9 10 8 7 8 9 10 11 12 13 13 14 14 10 7 10 13 13 13 11 10 9 7 4 7 10 11 11 14 20 23 23
5 5 3 2 4 5 6 6 6 8 8 8 8 7 6 7 8 9 9 10 11 11 12 12 12 11 12 11 10 9 9 10 11 11 9 9 10 11 12 13 13 13 12 10 9 9 12 14 15 15 12 11 12 8 3 3 4 8 8 10 16 20 21
5 7 8 8 6 6 5 4 4 6 6 7 8 7 6 7 8 9 9 10 10 10 11 11 12 12 13 13 11 10 10 10 10 11 10 10 10 11 12 13 12 11 10 9 8 9 12 14 15 15 12 11 12 9 6 5 1 5 9 12 16 18 20
7 8 9 7 5 6 5 4 6 8 7 7 7 7 7 8 9 9 9 9 8 9 10 10 10 10 11 12 11 9 9 9 9 8 9 10 11 11 11 12 12 10 9 9 8 9 11 13 13 13 13 12 11 9 7 6 3 4 8 12 15 17 18
5 5 6 5 4 4 3 5 7 6 6 6 6 6 6 7 7 7 7 7 7 8 8 9 9 8 8 9 10 8 7 7 8 8 8 9 11 11 11 12 12 8 5 6 6 7 9 10 11 12 13 12 11 9 6 4 1 5 8 10 12 14 15
6 8 9 8 6 4 3 4 5 4 4 6 6 5 5 5 4 4 4 5 6 7 7 7 7 7 7 8 9 8 7 7 9 10 10 9 10 11 11 11 9 5 3 4 4 6 5 6 7 10 12 12 11 8 6 4 2 6 8 8 8 9 11
9 11 11 9 7 7 6 6 5 4 4 5 4 4 3 3 3 3 4 5 5 5 6 7 7 7 7 6 7 7 7 7 9 11 12 13 12 12 11 10 8 4 3 2 1 2 1 2 4 6 9 11 11 9 7 5 7 10 12 13 14 13 12
10 11 12 12 12 10 9 7 5 4 5 6 5 3 2 2 4 5 5 4 3 3 5 6 7 8 8 6 5 6 5 6 10 13 13 14 14 11 9 10 9 5 3 3 2 2 2 1 2 3 6 10 11 10 10 11 14 17 19 20 21 20 19
Wind_Direction
223 200 200 209 201 186 173 192 211 194 165 186 197 180 169 149 207 223 211 229 243 246 258 241 198 197 215 235 246 178 163 172 171 170 175 175 178 181 178 179 178 178 181 181 181 182 181 182 184 186 187 186 186 186 188 192 193 194 196 197 198 198 197
222 212 198 208 215 204 173 192 197 146 153 214 207 175 177 182 214 212 205 218 211 208 235 236 218 212 206 217 230 197 164 171 172 170 175 177 177 180 177 177 177 175 179 183 184 185 184 185 188 189 188 186 186 187 188 191 193 195 197 199 200 199 198
209 211 200 203 218 221 207 177 162 156 200 209 185 197 192 183 209 217 211 216 208 199 199 197 211 221 218 210 214 204 171 171 175 170 171 174 175 177 175 174 176 175 178 183 184 186 187 189 190 189 186 185 186 188 189 192 195 197 198 199 201 201 200
191 197 202 198 205 218 219 178 160 182 210 182 168 201 198 175 198 216 217 215 214 216 196 189 200 212 216 207 203 203 179 169 176 173 169 173 172 173 172 172 176 177 178 181 183 185 187 188 188 186 184 185 187 188 189 192 196 198 199 201 202 202 202
189 187 202 201 191 200 215 198 176 185 192 168 172 202 211 197 201 198 211 231 239 239 203 190 194 201 207 197 187 197 182 170 172 168 169 176 174 171 173 173 177 179 178 181 184 185 185 184 183 184 185 186 187 187 190 192 194 197 199 201 202 203 203
211 195 193 197 191 191 206 209 188 182 182 175 177 203 208 204 234 213 197 242 249 255 240 193 187 191 197 190 177 182 177 169 168 166 169 176 176 173 174 175 176 178 179 181 183 183 180 178 181 185 186 186 187 189 191 192 194 197 199 201 202 204 204
249 220 194 186 186 191 201 215 212 185 183 183 178 193 194 191 229 239 228 266 257 275 288 189 178 183 182 177 174 172 166 164 166 166 166 169 174 176 177 176 175 177 179 178 179 182 181 179 181 183 184 186 189 191 192 193 195 197 199 201 203 204 204
269 257 209 179 179 186 197 212 218 205 193 187 178 177 173 174 209 216 225 264 258 292 316 129 150 160 154 153 167 173 165 162 166 167 161 163 172 178 179 179 176 176 177 177 178 183 184 180 180 183 185 188 191 192 193 194 196 198 199 200 202 203 205
254 271 250 181 178 185 199 204 208 221 210 184 176 178 163 172 202 191 177 240 250 284 328 32 82 122 139 148 168 175 156 154 166 168 162 163 171 176 179 178 176 175 174 177 183 187 186 182 181 185 188 189 191 193 195 196 197 198 199 199 201 202 204
239 240 233 212 187 185 200 203 199 216 223 198 180 173 165 186 204 194 178 213 252 289 5 40 61 96 123 146 162 170 161 154 161 170 168 166 168 172 175 175 176 178 175 177 182 183 186 186 184 185 188 189 191 193 195 197 197 198 199 200 201 202 204
264 265 262 279 251 190 188 202 199 204 217 220 190 154 181 191 179 199 200 177 206 271 69 85 93 107 115 145 150 145 154 151 152 167 174 171 167 169 173 173 173 175 174 176 178 178 184 187 186 186 187 188 190 191 193 196 197 197 198 200 201 202 203
275 275 280 291 285 215 184 195 205 198 203 218 217 175 183 167 140 208 220 156 158 231 235 194 174 156 149 152 135 106 103 117 133 158 172 176 175 172 171 171 169 171 173 174 174 177 182 186 186 185 186 188 189 190 192 194 196 196 197 198 200 202 203
301 293 293 298 300 289 203 194 210 208 196 207 217 201 172 158 149 208 200 154 161 208 220 202 194 179 156 141 127 113 107 95 107 147 168 176 176 167 167 170 167 169 173 173 174 178 181 185 185 184 185 187 189 190 192 194 196 196 196 197 199 200 202
300 297 296 296 297 295 288 203 213 223 209 203 209 212 188 167 165 190 175 157 172 188 173 170 166 140 122 120 114 103 98 92 97 128 154 161 155 149 163 169 166 168 174 176 178 178 179 184 185 183 184 186 188 190 191 193 196 197 196 196 198 199 202
303 305 305 297 299 289 278 270 214 243 255 208 203 208 214 177 165 188 174 148 172 186 138 120 99 96 98 104 105 100 99 100 100 109 120 123 119 123 141 151 151 159 168 171 175 177 179 183 184 183 184 185 188 190 192 194 196 197 196 196 196 199 201
317 326 319 296 306 316 298 295 315 315 351 272 203 200 214 198 167 181 169 137 182 200 123 97 85 96 95 89 91 91 87 87 91 103 117 123 121 117 122 129 132 142 154 161 168 175 181 183 183 183 182 183 187 191 193 195 196 197 198 197 197 199 201
312 324 324 314 330 341 317 288 310 300 324 318 234 201 206 204 162 165 174 184 201 172 128 111 93 88 87 83 84 83 76 69 65 73 102 127 131 125 125 131 134 138 145 152 160 166 172 179 184 184 180 180 187 193 194 195 195 197 200 199 198 200 200
308 314 323 336 351 313 275 261 263 285 333 4 357 209 201 199 188 161 157 174 171 134 125 126 115 102 94 87 83 82 83 79 64 60 71 90 104 113 124 132 137 144 148 148 150 156 164 173 182 185 184 183 188 193 195 194 194 196 201 203 201 199 200
296 311 329 351 279 252 269 297 324 327 331 36 39 13 236 206 228 184 148 154 148 107 100 112 117 109 95 79 69 70 73 74 68 61 66 82 96 111 117 107 103 123 132 128 129 144 162 175 180 183 187 190 192 193 193 194 194 196 200 203 203 199 199
297 327 351 121 279 298 305 324 347 340 328 23 46 29 21 12 355 298 155 153 142 108 98 100 101 96 87 73 57 59 64 65 64 56 53 66 75 78 85 83 80 92 98 92 85 97 143 176 185 191 195 196 194 194 194 194 195 197 199 202 204 199 198
338 336 314 286 297 311 318 335 340 322 13 58 80 81 30 14 3 352 111 128 118 108 101 93 85 84 81 66 39 46 59 63 64 62 59 59 61 58 54 53 52 63 76 81 80 76 80 127 171 190 201 201 199 197 196 195 195 197 199 203 204 200 198
335 324 312 303 265 283 338 338 328 330 31 72 92 83 38 10 359 356 13 76 93 97 101 97 89 80 74 63 36 43 59 61 59 64 63 59 61 61 52 46 41 42 51 61 69 70 55 32 23 204 208 206 202 197 197 198 197 197 201 205 207 203 200
303 301 307 296 235 96 346 337 338 339 356 47 72 67 35 354 348 2 20 35 43 54 75 84 83 78 73 65 33 36 59 64 59 61 60 55 56 56 57 61 52 39 42 54 61 64 54 8 320 310 309 246 212 203 201 201 199 201 207 209 209 207 203
269 270 282 285 292 10 343 341 346 334 330 44 67 66 17 335 337 3 25 32 34 40 55 65 68 72 79 78 40 32 56 67 63 58 54 49 43 39 47 55 47 36 37 45 45 41 33 10 338 314 308 299 252 220 213 207 202 207 213 213 211 210 208
261 254 263 268 316 359 340 345 354 340 332 59 69 77 287 310 336 11 26 32 33 32 42 58 63 63 67 66 50 42 49 61 61 57 53 46 37 29 27 31 33 30 23 20 20 18 15 11 357 329 312 299 279 249 227 217 213 214 215 215 212 210 209
264 257 274 281 42 352 335 347 7 2 10 76 73 208 254 309 357 19 23 31 36 31 35 47 52 57 55 49 48 44 44 53 59 58 55 46 38 31 21 18 24 21 9 5 7 3 0 0 352 340 326 307 294 282 250 230 227 223 216 213 212 209 207
252 253 292 329 63 340 342 359 23 26 49 103 218 266 326 8 17 17 15 23 26 27 35 38 38 42 41 41 46 43 39 45 50 53 55 49 41 34 19 12 14 6 355 359 4 355 349 344 335 331 322 309 305 296 273 255 244 229 216 211 210 205 203
250 234 338 45 212 306 354 17 30 35 71 105 70 5 24 22 19 15 12 13 13 18 31 37 37 39 34 34 39 38 34 36 38 45 50 48 43 33 17 11 11 3 351 345 337 330 338 336 328 326 313 294 292 292 281 267 242 217 208 206 203 200 199
293 262 262 258 251 324 12 22 10 17 51 67 49 35 33 24 20 19 10 3 6 12 21 27 36 41 37 32 30 28 28 28 28 32 36 36 36 26 14 11 14 5 347 331 316 304 337 355 349 349 343 313 298 289 268 236 207 197 194 195 195 194 194
319 298 268 220 104 25 16 7 355 6 26 43 48 43 31 18 20 23 13 3 3 7 12 16 22 31 39 38 30 23 23 21 17 19 27 30 28 21 12 8 7 357 342 339 349 10 19 16 10 5 8 8 351 323 234 193 189 187 182 185 190 191 191
313 305 315 16 52 33 9 358 360 1 8 31 49 49 31 16 18 21 15 6 3 5 10 11 8 11 22 28 24 16 16 14 9 9 14 16 16 18 12 0 357 353 344 349 17 27 15 12 9 1 359 3 4 9 60 129 192 203 201 192 188 187 187
297 295 309 325 333 335 335 341 349 346 0 36 44 39 30 28 25 20 14 9 5 5 8 7 4 4 8 12 13 11 8 6 5 3 4 4 3 5 1 352 349 350 347 353 14 24 18 16 10 3 2 2 359 2 19 27 34 198 199 189 179 178 179
296 297 309 324 322 307 315 16 16 359 8 33 36 31 29 30 27 19 10 6 6 6 5 3 1 3 4 0 1 4 3 360 358 355 353 349 344 345 348 341 333 336 353 12 30 36 31 27 18 8 8 10 6 2 1 358 13 143 158 161 162 163 168
280 287 305 336 341 305 322 40 31 10 12 20 20 28 34 33 31 17 359 355 6 9 4 356 353 359 0 351 347 355 359 354 352 348 342 336 333 335 336 327 320 329 4 24 33 42 35 27 22 14 12 17 16 10 7 7 37 149 144 145 154 160 167
287 288 298 317 326 301 318 18 18 10 16 12 9 23 28 25 24 12 355 1 9 3 353 349 349 350 347 340 341 348 352 350 345 338 332 328 328 330 329 319 312 326 357 356 21 47 41 26 23 14 15 26 29 16 12 32 115 158 150 132 125 142 163
296 298 304 314 311 297 310 343 360 3 356 343 340 350 351 339 347 20 33 25 10 352 342 341 338 333 329 328 335 341 345 344 334 323 318 316 312 314 318 309 297 305 329 336 45 69 1 25 50 30 22 31 36 32 33 62 113 135 133 115 97 97 116
295 300 309 312 306 300 303 311 318 320 309 299 295 289 280 308 350 19 34 22 356 346 341 331 326 326 322 318 324 330 330 327 321 317 315 312 308 307 305 295 285 278 268 255 223 234 281 16 75 51 36 36 41 56 74 91 103 109 110 106 99 95 98